Location: Miles
(41.4492°N, 81.6087°W)
Time: 10:18:09
(UTC+00:00)

Explorer 7 - All Passes

Search period start: 07 September 2024 00:00
Search period end: 17 September 2024 00:00
Orbit: 463 x 611 km, 50.3° (Epoch: 06 September)

Date Brightness Start Highest point End Pass type
(mag) Time Alt. Az. Time Alt. Az. Time Alt. Az.
07 Sep - 09:36:17 10° SSW 09:39:23 26° SE 09:42:27 10° ENE visible
07 Sep - 11:15:10 10° WSW 11:18:42 49° NNW 11:22:14 10° NE daylight
07 Sep - 12:55:57 10° WNW 12:58:47 21° N 13:01:39 10° NE daylight
07 Sep - 14:36:01 10° NW 14:39:08 25° NNE 14:42:18 10° ENE daylight
07 Sep - 16:15:15 10° WNW 16:18:59 86° NNE 16:22:51 10° ESE daylight
07 Sep - 17:55:53 10° W 17:58:04 15° SW 18:00:17 10° SSW daylight
08 Sep - 09:26:08 10° SSW 09:29:29 34° SE 09:32:47 10° ENE visible
08 Sep - 11:05:26 10° W 11:08:54 41° NNW 11:12:21 10° NE daylight
08 Sep - 12:46:17 10° NW 12:49:03 20° N 12:51:52 10° NE daylight
08 Sep - 14:26:10 10° NW 14:29:22 28° NNE 14:32:38 10° ENE daylight
08 Sep - 16:05:25 10° WNW 16:09:07 75° SW 16:12:57 10° SE daylight
08 Sep - 17:46:56 10° WSW 17:48:06 11° SW 17:49:15 10° SSW daylight
09 Sep - 09:16:02 10° SSW 09:19:33 44° SE 09:23:01 10° ENE visible
09 Sep - 10:55:42 10° W 10:59:04 35° NNW 11:02:27 10° NE daylight
09 Sep - 12:36:32 10° NW 12:39:18 20° N 12:42:04 10° NE daylight
09 Sep - 14:16:16 10° NW 14:19:33 31° NNE 14:22:55 10° E daylight
09 Sep - 15:55:34 10° WNW 15:59:12 59° SW 16:02:58 10° SE daylight
10 Sep - 09:05:57 10° SW 09:09:35 57° SE 09:13:10 10° ENE visible
10 Sep - 10:45:56 10° W 10:49:13 31° NNW 10:52:29 10° NE daylight
10 Sep - 12:26:43 10° NW 12:29:29 20° N 12:32:15 10° NE daylight
10 Sep - 14:06:18 10° NW 14:09:41 35° NNE 14:13:08 10° E daylight
10 Sep - 15:45:41 10° WNW 15:49:13 45° SW 15:52:53 10° SE daylight
11 Sep - 07:20:07 10° SE 07:20:40 10° SE 07:21:14 10° ESE visible
11 Sep - 08:55:54 10° SW 08:59:36 74° SE 09:03:14 10° ENE visible
11 Sep - 10:36:09 10° WNW 10:39:19 27° NNW 10:42:29 10° NE visible
11 Sep - 12:16:50 10° NW 12:19:37 20° N 12:22:25 10° NE daylight
11 Sep - 13:56:18 10° NW 13:59:46 41° NNE 14:03:18 10° E daylight
11 Sep - 15:35:49 10° WNW 15:39:11 35° SW 15:42:40 10° SSE daylight
12 Sep - 07:08:36 10° SSE 07:10:32 14° SE 07:12:28 10° E visible
12 Sep - 08:45:51 10° WSW 08:49:35 88° NNW 08:53:14 10° ENE visible
12 Sep - 10:26:19 10° WNW 10:29:24 25° NNW 10:32:28 10° NE visible
12 Sep - 12:06:53 10° NW 12:09:43 21° N 12:12:34 10° ENE daylight
12 Sep - 13:46:15 10° NW 13:49:47 48° NNE 13:53:24 10° ESE daylight
12 Sep - 15:25:57 10° WNW 15:29:07 27° SW 15:32:21 10° SSE daylight
13 Sep - 06:57:48 10° S 07:00:23 18° SE 07:02:57 10° E night (unlit)
13 Sep - 08:35:48 10° WSW 08:39:32 71° NNW 08:43:10 10° NE visible
13 Sep - 10:16:27 10° WNW 10:19:27 23° NNW 10:22:25 10° NE visible
13 Sep - 11:56:52 10° NW 11:59:46 22° N 12:02:40 10° ENE daylight
13 Sep - 13:36:10 10° NW 13:39:45 59° NNE 13:43:25 10° ESE daylight
13 Sep - 15:16:07 10° W 15:18:58 21° SW 15:21:53 10° S daylight
14 Sep - 06:47:10 10° S 06:50:12 23° SE 06:53:10 10° E night (unlit)
14 Sep - 08:25:45 10° WSW 08:29:27 57° NNW 08:33:04 10° NE visible
14 Sep - 10:06:32 10° WNW 10:09:27 22° N 10:12:21 10° NE visible
14 Sep - 11:46:47 10° NW 11:49:46 23° NNE 11:52:46 10° ENE daylight
14 Sep - 13:26:03 10° NW 13:29:40 73° NNE 13:33:22 10° ESE daylight
14 Sep - 15:06:22 10° W 15:08:46 17° SW 15:11:13 10° S daylight
15 Sep - 06:36:39 10° SSW 06:40:00 29° SE 06:43:15 10° ENE night (unlit)
15 Sep - 08:15:42 10° WSW 08:19:20 47° NNW 08:22:54 10° NE visible
15 Sep - 09:56:33 10° WNW 09:59:25 21° N 10:02:15 10° NE visible
15 Sep - 11:36:39 10° NW 11:39:44 25° NNE 11:42:48 10° ENE daylight
15 Sep - 13:15:54 10° WNW 13:19:32 90° SW 13:23:13 10° SE daylight
15 Sep - 14:56:48 10° WSW 14:58:31 13° SW 15:00:15 10° SSW daylight
16 Sep - 06:26:12 10° SSW 06:29:46 37° SE 06:33:13 10° ENE night (unlit)
16 Sep - 08:05:38 10° W 08:09:12 40° NNW 08:12:41 10° NE visible
16 Sep - 09:46:32 10° NW 09:49:21 20° N 09:52:08 10° NE visible
16 Sep - 11:26:27 10° NW 11:29:38 28° NNE 11:32:48 10° ENE daylight
16 Sep - 13:05:42 10° WNW 13:09:20 71° SW 13:12:59 10° SE daylight
